DW1449 Weather Reports


time (UTC)temp
C
wind
direction
speed
KPH
gust
KPH
rain 1hr
cm
rain 24hr
cm
rain mn
cm
humidity
%
barometer
mb
20260506081034 10 0.0 0.0 0.00 0.00 0.00 66 1011.7
20260506080534 10 0.0 0.0 0.00 0.00 0.00 67 1011.7
20260506073042 9 0.0 0.0 0.00 0.00 0.00 66 1011.5
20260506072538 8 0.0 0.0 0.00 0.00 0.00 67 1011.5
20260506072035 8 0.0 0.0 0.00 0.00 0.00 68 1011.6
20260506071546 8 0.0 0.0 0.00 0.00 0.00 68 1011.5
20260506071035 8 0.0 0.0 0.00 0.00 0.00 67 1011.5
20260506070534 8 0.0 0.0 0.00 0.00 0.00 67 1011.4
20260506062037 8 0.0 0.0 0.00 0.00 0.00 64 1011.4
20260506061542 7 0.0 0.0 0.00 0.00 0.00 64 1011.3
20260506061035 7 0.0 0.0 0.00 0.00 0.00 64 1011.4
20260506060534 7 0.0 0.0 0.00 0.00 0.00 64 1011.4
20260506051035 6 0.0 0.0 0.00 0.00 0.00 60 1011.7
20260506050535 6 0.0 0.0 0.00 0.00 0.00 59 1011.6
20260506045034 6 0.0 0.0 0.00 0.00 0.00 59 1011.6
20260506044554 6 0.0 0.0 0.00 0.00 0.00 58 1011.7
20260506044034 5 0.0 0.0 0.00 0.00 0.00 58 1011.6
20260506043535 5 0.0 0.0 0.00 0.00 0.00 58 1011.7
20260506043043 5 0.0 0.0 0.00 0.00 0.00 57 1011.5
20260506042537 5 0.0 0.0 0.00 0.00 0.00 57 1011.4
20260506042036 5 0.0 0.0 0.00 0.00 0.00 57 1011.5
20260506041549 5 0.0 0.0 0.00 0.00 0.00 56 1011.4
20260506041046 5 0.0 0.0 0.00 0.00 0.00 56 1011.4
20260506040535 5 0.0 0.0 0.00 0.00 0.00 56 1011.3
20260506040042 5 0.0 0.0 0.00 0.00 0.00 55 1011.3
20260506035535 5 0.0 0.0 0.00 0.00 0.00 55 1011.4
20260506035035 5 0.0 0.0 0.00 0.00 0.00 55 1011.5
20260506034544 5 0.0 0.0 0.00 0.00 0.00 56 1011.4
20260506034034 5 0.0 0.0 0.00 0.00 0.00 56 1011.2
20260506033534 5 0.0 0.0 0.00 0.00 0.00 57 1011.4
20260506033046 5 0.0 0.0 0.00 0.00 0.00 58 1011.4
20260506032535 5 0.0 0.0 0.00 0.00 0.00 57 1011.4
20260506032038 5 0.0 0.0 0.00 0.00 0.00 57 1011.6
20260506031549 5 0.0 0.0 0.00 0.00 0.00 57 1011.5
20260506031035 5 0.0 0.0 0.00 0.00 0.00 57 1011.4
20260506030536 5 0.0 0.0 0.00 0.00 0.00 57 1011.5
20260506030049 5 0.0 0.0 0.00 0.00 0.00 58 1011.7
20260506025534 4 0.0 0.0 0.00 0.00 0.00 58 1011.5
20260506025034 4 0.0 0.0 0.00 0.00 0.00 58 1011.5
20260506024550 4 0.0 0.0 0.00 0.00 0.00 58 1011.6
20260506024036 4 0.0 0.0 0.00 0.00 0.00 58 1011.5
20260506023536 4 0.0 0.0 0.00 0.00 0.00 58 1011.7
20260506023047 4 0.0 0.0 0.00 0.00 0.00 57 1011.8
20260506022533 4 0.0 0.0 0.00 0.00 0.00 57 1011.8
20260506022035 4 0.0 0.0 0.00 0.00 0.00 58 1012.0
20260506021544 4 0.0 0.0 0.00 0.00 0.00 57 1011.8
20260506021036 4 0.0 0.0 0.00 0.00 0.00 57 1012.0
20260506020534 4 0.0 0.0 0.00 0.00 0.00 57 1012.1
20260506020048 5 0.0 0.0 0.00 0.00 0.00 56 1012.2
20260506015539 5 0.0 0.0 0.00 0.00 0.00 56 1012.1
20260506015035 5 0.0 0.0 0.00 0.00 0.00 56 1012.1
20260506014544 4 0.0 0.0 0.00 0.00 0.00 57 1012.2
20260506014034 4 0.0 0.0 0.00 0.00 0.00 57 1012.2
20260506013535 4 0.0 0.0 0.00 0.00 0.00 57 1012.2
20260506013050 4 0.0 0.0 0.00 0.00 0.00 58 1012.3
20260506012535 4 0.0 0.0 0.00 0.00 0.00 58 1012.2
20260506012037 4 0.0 0.0 0.00 0.00 0.00 58 1012.0
20260506011546 4 0.0 0.0 0.00 0.00 0.00 58 1012.1
20260506011036 4 0.0 0.0 0.00 0.00 0.00 57 1012.2
20260506010537 4 0.0 0.0 0.00 0.00 0.00 58 1012.1
20260506010048 4 0.0 0.0 0.00 0.00 0.00 58 1012.2
20260506005535 4 0.0 0.0 0.00 0.00 0.00 58 1012.1
20260506005035 5 0.0 0.0 0.00 0.00 0.00 58 1012.2
20260506004551 5 0.0 0.0 0.00 0.00 0.00 58 1012.1
20260506004035 5 0.0 0.0 0.00 0.00 0.00 58 1012.0
20260506003535 5 0.0 0.0 0.00 0.00 0.00 58 1012.0
20260506003042 5 0.0 0.0 0.00 0.00 0.00 58 1012.1
20260506002537 5 0.0 0.0 0.00 0.00 0.00 59 1012.1
20260506002033 5 0.0 0.0 0.00 0.00 0.00 59 1012.0
20260506001542 5 0.0 0.0 0.00 0.00 0.00 58 1012.0
20260506001035 5 0.0 0.0 0.00 0.00 0.00 57 1012.1
20260506000533 5 0.0 0.0 0.00 0.00 0.00 56 1012.0
20260506000041 5 0.0 0.0 0.00 0.00 0.00 56 1011.9
20260505235532 5 0.0 0.0 0.00 0.00 0.00 57 1011.9
20260505235033 5 0.0 0.0 0.00 0.00 0.00 57 1012.1
20260505234541 5 0.0 0.0 0.00 0.00 0.00 57 1012.2
20260505234035 4 0.0 0.0 0.00 0.00 0.00 60 1012.0
20260505233532 4 0.0 0.0 0.00 0.00 0.00 62 1012.0
20260505233045 4 0.0 0.0 0.00 0.00 0.00 63 1012.1
20260505232534 4 0.0 0.0 0.00 0.00 0.00 63 1012.0
20260505232035 5 0.0 0.0 0.00 0.00 0.00 62 1011.9
20260505231554 5 0.0 0.0 0.00 0.00 0.00 62 1011.9
20260505231033 5 0.0 0.0 0.00 0.00 0.00 64 1011.9
20260505230534 4 0.0 0.0 0.00 0.00 0.00 65 1012.0
20260505230053 4 0.0 0.0 0.00 0.00 0.00 66 1012.0
20260505225533 4 0.0 0.0 0.00 0.00 0.00 67 1012.0
20260505225038 4 0.0 0.0 0.00 0.00 0.00 68 1011.9
20260505224539 4 0.0 0.0 0.00 0.00 0.00 68 1012.1
20260505224035 3 0.0 0.0 0.00 0.00 0.00 69 1012.1
20260505223536 3 0.0 0.0 0.00 0.00 0.00 69 1012.2
20260505223042 4 0.0 0.0 0.00 0.00 0.00 67 1012.2
20260505222533 5 0.0 0.0 0.00 0.00 0.00 65 1012.2
20260505222034 5 0.0 0.0 0.00 0.00 0.00 64 1012.1
20260505221542 5 0.0 0.0 0.00 0.00 0.00 64 1012.4
20260505221036 5 0.0 0.0 0.00 0.00 0.00 65 1012.3
20260505220532 5 0.0 0.0 0.00 0.00 0.00 65 1012.2
20260505220046 5 0.0 0.0 0.00 0.00 0.00 66 1012.3
20260505215534 5 0.0 0.0 0.00 0.00 0.00 67 1012.3
20260505215034 5 0.0 0.0 0.00 0.00 0.00 67 1012.3
20260505214543 5 0.0 0.0 0.00 0.00 0.00 67 1012.3
20260505214034 5 0.0 0.0 0.00 0.00 0.00 67 1012.2
20260505213533 5 0.0 0.0 0.00 0.00 0.00 67 1012.3
20260505213052 5 0.0 0.0 0.00 0.00 0.00 67 1012.3
20260505212533 5 0.0 0.0 0.00 0.00 0.00 68 1012.3
20260505212036 5 0.0 0.0 0.00 0.00 0.00 68 1012.2
20260505211548 5 0.0 0.0 0.00 0.00 0.00 68 1012.3
20260505211039 5 0.0 0.0 0.00 0.00 0.00 68 1012.2
20260505210535 5 0.0 0.0 0.00 0.00 0.00 67 1012.2
20260505210039 5 0.0 0.0 0.00 0.00 0.00 67 1012.2
20260505205538 5 0.0 0.0 0.00 0.00 0.00 68 1012.1
20260505205035 5 0.0 0.0 0.00 0.00 0.00 68 1012.1
20260505204539 5 0.0 0.0 0.00 0.00 0.00 67 1012.1
20260505204034 5 0.0 0.0 0.00 0.00 0.00 67 1012.1
20260505203536 5 0.0 0.0 0.00 0.00 0.00 67 1012.2
20260505203042 6 0.0 0.0 0.00 0.00 0.00 65 1012.3
20260505202535 6 0.0 0.0 0.00 0.00 0.00 66 1012.3
20260505202034 6 0.0 0.0 0.00 0.00 0.00 66 1012.2
20260505201547 6 0.0 0.0 0.00 0.00 0.00 66 1012.3
20260505201034 6 0.0 0.0 0.00 0.00 0.00 66 1012.1
20260505200535 6 0.0 0.0 0.00 0.00 0.00 66 1012.2
20260505200040 6 0.0 0.0 0.00 0.00 0.00 66 1012.3
20260505195535 6 0.0 0.0 0.00 0.00 0.00 65 1012.2
20260505195034 6 0.0 0.0 0.00 0.00 0.00 65 1012.1
20260505194539 6 0.0 0.0 0.00 0.00 0.00 65 1012.1
20260505194034 6 0.0 0.0 0.00 0.00 0.00 65 1012.1
20260505193534 7 0.0 0.0 0.00 0.00 0.00 64 1012.1
20260505193040 7 0.0 0.0 0.00 0.00 0.00 65 1012.1
20260505192535 7 0.0 0.0 0.00 0.00 0.00 65 1012.1
20260505192035 7 0.0 0.0 0.00 0.00 0.00 65 1012.0
20260505191559 7 0.0 0.0 0.00 0.00 0.00 63 1012.2
20260505191034 7 0.0 0.0 0.00 0.00 0.00 62 1012.0
20260505190534 8 0.0 0.0 0.00 0.00 0.00 61 1012.0
20260505190042 8 0.0 0.0 0.00 0.00 0.00 61 1012.0
20260505185534 8 0.0 0.0 0.00 0.00 0.00 60 1011.9
20260505185035 8 0.0 0.0 0.00 0.00 0.00 59 1012.0
20260505184549 8 0.0 0.0 0.00 0.00 0.00 58 1011.9
20260505184036 8 0.0 0.0 0.00 0.00 0.00 58 1011.9
20260505183535 8 0.0 0.0 0.00 0.00 0.00 57 1011.8
20260505183045 9 0.0 0.0 0.00 0.00 0.00 56 1012.0
20260505182535 9 0.0 0.0 0.00 0.00 0.00 56 1012.0
20260505182038 9 0.0 0.0 0.00 0.00 0.00 55 1011.9
20260505181544 9 0.0 0.0 0.00 0.00 0.00 54 1011.8
20260505181035 9 0.0 0.0 0.00 0.00 0.00 55 1011.9
20260505180533 10 0.0 0.0 0.00 0.00 0.00 54 1011.9
20260505180059 10 0.0 0.0 0.00 0.00 0.00 53 1011.9
20260505175536 10 0.0 0.0 0.00 0.00 0.00 52 1011.9
20260505175034 10 0.0 0.0 0.00 0.00 0.00 52 1011.9
20260505174552 10 0.0 0.0 0.00 0.00 0.00 53 1011.8
20260505174038 10 0.0 0.0 0.00 0.00 0.00 53 1011.8
20260505173536 10 0.0 0.0 0.00 0.00 0.00 52 1011.9
20260505173049 10 0.0 0.0 0.00 0.00 0.00 53 1011.7
20260505172537 10 0.0 0.0 0.00 0.00 0.00 53 1011.8
20260505172035 10 0.0 0.0 0.00 0.00 0.00 54 1012.0
20260505171549 10 0.0 0.0 0.00 0.00 0.00 53 1011.9
20260505171037 10 0.0 0.0 0.00 0.00 0.00 54 1011.8
20260505170540 10 0.0 0.0 0.00 0.00 0.00 55 1011.9
20260505170049 10 0.0 0.0 0.00 0.00 0.00 56 1011.7
20260505165536 10 0.0 0.0 0.00 0.00 0.00 55 1011.7
20260505165036 10 0.0 0.0 0.00 0.00 0.00 55 1011.9
20260505164549 10 0.0 0.0 0.00 0.00 0.00 55 1011.8
20260505164037 10 0.0 0.0 0.00 0.00 0.00 54 1011.8
20260505163536 10 0.0 0.0 0.00 0.00 0.00 52 1011.8
20260505163043 10 0.0 0.0 0.00 0.00 0.00 51 1011.9
20260505162535 10 0.0 0.0 0.00 0.00 0.00 48 1011.8
20260505162036 10 0.0 0.0 0.00 0.00 0.00 49 1011.9
20260505161550 10 0.0 0.0 0.00 0.00 0.00 47 1011.8
20260505161035 10 0.0 0.0 0.00 0.00 0.00 46 1011.9
20260505160537 10 0.0 0.0 0.00 0.00 0.00 49 1011.8
20260505153047 11 0.0 0.0 0.00 0.00 0.00 42 1011.8
20260505152537 11 0.0 0.0 0.00 0.00 0.00 42 1011.7
20260505152035 11 0.0 0.0 0.00 0.00 0.00 42 1011.8
20260505151546 11 0.0 0.0 0.00 0.00 0.00 42 1011.8
20260505151038 11 0.0 0.0 0.00 0.00 0.00 42 1011.6
20260505150536 11 0.0 0.0 0.00 0.00 0.00 41 1011.6
20260505140536 11 0.0 0.0 0.00 0.00 0.00 40 1011.8
20260505125035 11 0.0 0.0 0.00 0.00 0.00 47 1012.0
20260505124542 12 0.0 0.0 0.00 0.00 0.00 40 1012.0
20260505124035 12 0.0 0.0 0.00 0.00 0.00 43 1012.0
20260505123537 12 0.0 0.0 0.00 0.00 0.00 36 1011.9
20260505123047 12 0.0 0.0 0.00 0.00 0.00 38 1011.9
20260505122536 12 0.0 0.0 0.00 0.00 0.00 41 1012.1
20260505122036 11 0.0 0.0 0.00 0.00 0.00 42 1012.1
20260505121542 11 0.0 0.0 0.00 0.00 0.00 38 1012.0
20260505121035 12 0.0 0.0 0.00 0.00 0.00 41 1012.0
20260505120534 12 0.0 0.0 0.00 0.00 0.00 40 1012.0
20260505120042 12 0.0 0.0 0.00 0.00 0.00 49 1011.8
20260505115535 12 0.0 0.0 0.00 0.00 0.00 41 1011.9
20260505115035 12 0.0 0.0 0.00 0.00 0.00 44 1012.0
20260505114542 11 0.0 0.0 0.00 0.00 0.00 47 1011.8
20260505114034 11 0.0 0.0 0.00 0.00 0.00 50 1012.0
20260505113533 12 0.0 0.0 0.00 0.00 0.00 63 1011.9
20260505113051 11 0.0 0.0 0.00 0.00 0.00 60 1012.0
20260505112535 11 0.0 0.0 0.00 0.00 0.00 57 1012.1
20260505112034 11 0.0 0.0 0.00 0.00 0.00 61 1012.0
20260505111545 11 0.0 0.0 0.00 0.00 0.00 51 1012.1
20260505111036 11 0.0 0.0 0.00 0.00 0.00 64 1012.0
20260505110538 11 0.0 0.0 0.00 0.00 0.00 62 1011.9
20260505102035 10 0.0 0.0 0.00 0.00 0.00 64 1012.2
20260505101557 10 0.0 0.0 0.00 0.00 0.00 68 1012.2
20260505101035 11 0.0 0.0 0.00 0.00 0.00 68 1012.2
20260505100536 11 0.0 0.0 0.00 0.00 0.00 66 1012.2
20260505100057 11 0.0 0.0 0.00 0.00 0.00 68 1012.2
20260505095537 10 0.0 0.0 0.00 0.00 0.00 67 1012.2
20260505095035 11 0.0 0.0 0.00 0.00 0.00 70 1012.2
20260505094545 10 0.0 0.0 0.00 0.00 0.00 74 1012.2
20260505094034 10 0.0 0.0 0.00 0.00 0.00 74 1012.2
20260505093536 10 0.0 0.0 0.00 0.00 0.00 74 1012.1
20260505093044 10 0.0 0.0 0.00 0.00 0.00 76 1012.3
20260505092536 10 0.0 0.0 0.00 0.00 0.00 76 1012.2
20260505092037 10 0.0 0.0 0.00 0.00 0.00 77 1012.3
20260505091543 10 0.0 0.0 0.00 0.00 0.00 74 1012.3
20260505091034 10 0.0 0.0 0.00 0.00 0.00 73 1012.1
20260505090535 10 0.0 0.0 0.00 0.00 0.00 74 1012.3
20260505090041 10 0.0 0.0 0.00 0.00 0.00 78 1012.4
20260505085533 10 0.0 0.0 0.00 0.00 0.00 76 1012.5
20260505085039 10 0.0 0.0 0.00 0.00 0.00 73 1012.4
20260505084539 10 0.0 0.0 0.00 0.00 0.00 72 1012.4
20260505084035 10 0.0 0.0 0.00 0.00 0.00 75 1012.4
20260505083535 10 0.0 0.0 0.00 0.00 0.00 73 1012.4
20260505083042 10 0.0 0.0 0.00 0.00 0.00 74 1012.2
20260505082536 10 0.0 0.0 0.00 0.00 0.00 78 1012.3
20260505082034 9 0.0 0.0 0.00 0.00 0.00 80 1012.2
20260505081553 9 0.0 0.0 0.00 0.00 0.00 77 1012.4